[[{"header":{"parameterUnit":"m.s-1","parameterCategory":1,"la1":30.2992,"la2":30.254,"lo1":-89.0895,"lo2":-89.0443,"dy":0.0025,"dx":0.0025,"nx":19,"ny":19,"refTime":"2026-03-31T09:00:00:Z","depth":0,"parameterNumber":2,"parameterNumberName":"U-component_of_WINDS"},"data":[0,0,0,-3.4814,-3.4816,-3.4931,-3.4931,-3.5086,-3.5087,0,0,0,0,0,0,0,0,0,0,0,-3.4784,-3.4785,-3.4814,-3.4817,-3.4931,-3.4931,-3.5085,-3.5087,0,0,0,0,0,0,0,0,0,0,0,-3.4783,-3.4785,-3.4786,-3.4817,-3.4931,-3.4931,-3.5085,-3.4996,0,0,0,0,0,0,0,0,0,0,-3.4884,-3.486,-3.4784,-3.4786,-3.4818,-3.4931,-3.4931,-3.4992,-3.5001,-3.5037,0,-3.5069,0,-3.508,-3.5098,-3.5098,0,0,0,-3.4814,-3.4851,-3.4878,-3.4786,-3.4819,-3.493,-3.4878,-3.4997,-3.5008,-3.505,-3.5071,-3.5076,-3.5083,-3.5099,-3.51,-3.5312,-3.5313,0,0,-3.4807,-3.4807,-3.4871,-3.4886,-3.4868,-3.4875,-3.4882,-3.5004,-3.5026,-3.5071,-3.508,-3.5085,-3.51,-3.5101,-3.5311,-3.5312,0,0,0,-3.4791,-3.4802,-3.4826,-3.488,-3.49,-3.4878,-3.4886,-3.5021,-3.5029,-3.5081,-3.5087,-3.5101,-3.5103,-3.531,-3.5311,-3.5366,0,0,0,-3.4787,-3.4793,-3.4824,-3.4825,-3.4898,-3.4962,-3.4901,-3.502,-3.5034,-3.5086,-3.5101,-3.5104,-3.5308,-3.5311,-3.5362,-3.5391,0,0,0,-3.4775,-3.4791,-3.4809,-3.4824,-3.4873,-3.496,-3.4975,-3.5023,-3.5038,-3.5098,-3.5105,-3.5308,-3.531,-3.5358,-3.5385,-3.5447,0,0,0,-3.4762,-3.4856,-3.481,-3.4918,-3.4872,-3.4993,-3.4974,-3.5063,-3.5122,-3.5102,-3.5309,-3.5311,-3.5357,-3.5381,-3.5443,-3.5498,-3.5521,0,0,-3.488,-3.487,-3.4934,-3.4896,-3.5024,-3.4975,-3.5112,-3.5166,-3.5173,-3.5265,-3.5271,-3.5363,-3.5385,-3.5446,-3.5652,-3.567,0,0,0,-3.4971,-3.5016,-3.505,-3.5106,-3.515,-3.519,-3.5224,-3.5244,-3.5323,-3.522,-3.5402,-3.5415,-3.5451,-3.5478,-3.5493,-3.5524,-3.5324,-3.5323,-3.5323,-3.5136,-3.514,-3.5245,-3.5263,-3.5318,-3.5352,-3.5397,-3.543,-3.5418,-3.5461,-3.5488,-3.5612,-3.5643,-3.5655,-3.5687,-3.5518,-3.5519,-3.5519,-3.5519,-3.5309,-3.5374,-3.5357,-3.5452,-3.5457,-3.5537,-3.5575,-3.5564,-3.5641,-3.5592,-3.5624,-3.557,-3.5675,-3.5703,-3.5523,-3.5522,-3.5522,-3.5522,-3.5521,-3.5417,-3.5449,-3.5472,-3.5554,-3.5616,-3.5632,-3.5706,-3.5708,-3.5709,-3.5741,-3.577,-3.5769,-3.5768,-3.5755,-3.5755,-3.5756,-3.5756,-3.5757,-3.5757,-3.5519,-3.5544,-3.5606,-3.5662,-3.5698,-3.5746,-3.5783,-3.5819,-3.586,-3.5855,-3.5855,-3.5839,-3.5685,-3.5645,-3.5763,-3.5762,-3.5761,-3.5761,-3.576,-3.5692,-3.5653,-3.5749,-3.5785,-3.5851,-3.5914,-3.5915,-3.5989,-3.6019,-3.6056,-3.6034,-3.592,-3.591,-3.5898,-3.5865,-3.6033,-3.6033,-3.6033,-3.6033,-3.5782,-3.5777,-3.5876,-3.5934,-3.5992,-3.6003,-3.6113,-3.6143,-3.6169,-3.6188,-3.6164,-3.6122,-3.6109,-3.6106,-3.6089,-3.6059,-3.6273,-3.6273,-3.6273,-3.5888,-3.5889,-3.5981,-3.6005,-3.6057,-3.6103,-3.6206,-3.6274,-3.6295,-3.6283,-3.6203,-3.6193,-3.6124,-3.6102,-3.6085,-3.6059,-3.6003,0,0]},{"header":{"parameterUnit":"m.s-1","parameterCategory":1,"la1":30.2992,"la2":30.254,"lo1":-89.0895,"lo2":-89.0443,"dy":0.0025,"dx":0.0025,"nx":19,"ny":19,"refTime":"2026-03-31T09:00:00:Z","depth":0,"parameterNumber":3,"parameterNumberName":"V-component_of_WINDS"},"data":[0,0,0,3.0412,3.0412,3.0388,3.0388,3.0373,3.0373,0,0,0,0,0,0,0,0,0,0,0,3.0427,3.0428,3.0412,3.0412,3.0388,3.0388,3.0373,3.0373,0,0,0,0,0,0,0,0,0,0,0,3.0427,3.0428,3.0428,3.0412,3.0388,3.0388,3.0373,3.0385,0,0,0,0,0,0,0,0,0,0,3.0405,3.0428,3.0428,3.0428,3.0412,3.0388,3.0388,3.0385,3.0384,3.0389,0,3.0396,0,3.0384,3.0372,3.0372,0,0,0,3.0405,3.0429,3.0415,3.0428,3.0411,3.0389,3.0397,3.0385,3.0383,3.0388,3.0396,3.0395,3.0384,3.0372,3.0372,3.0424,3.0425,0,0,3.0406,3.0428,3.0416,3.0415,3.0419,3.0398,3.0396,3.0384,3.0393,3.0395,3.0394,3.0384,3.0372,3.0372,3.0424,3.0424,0,0,0,3.0415,3.0429,3.0415,3.0416,3.041,3.0397,3.0396,3.0394,3.0388,3.0394,3.0384,3.0372,3.0372,3.0423,3.0424,3.0472,0,0,0,3.0415,3.0434,3.0416,3.0429,3.0411,3.0402,3.0407,3.0389,3.0386,3.0384,3.0372,3.0372,3.0422,3.0423,3.047,3.0492,0,0,0,3.0426,3.0435,3.0434,3.043,3.0421,3.0402,3.0394,3.0388,3.0381,3.0372,3.0372,3.0422,3.0423,3.0467,3.0488,3.0512,0,0,0,3.0444,3.0477,3.0436,3.0468,3.0421,3.0432,3.0394,3.0401,3.04,3.0372,3.0422,3.0424,3.0467,3.0485,3.051,3.0538,3.0551,0,0,3.0497,3.0484,3.0502,3.0464,3.0488,3.0434,3.0464,3.0443,3.0422,3.0425,3.0426,3.0471,3.0487,3.0512,3.0617,3.0628,0,0,0,3.0526,3.0539,3.0541,3.0541,3.0526,3.0515,3.0487,3.0479,3.048,3.0428,3.0485,3.0495,3.0508,3.052,3.0529,3.054,3.043,3.043,3.043,3.0631,3.0605,3.0633,3.0603,3.0604,3.0576,3.0574,3.0559,3.053,3.0544,3.0545,3.0612,3.0627,3.0634,3.0646,3.0557,3.0557,3.0557,3.0557,3.0708,3.0723,3.0686,3.07,3.0671,3.0682,3.0657,3.0637,3.0643,3.0609,3.0619,3.0585,3.0647,3.0655,3.0561,3.056,3.056,3.0559,3.0559,3.0774,3.0777,3.0768,3.0767,3.0769,3.0738,3.0747,3.072,3.0695,3.0706,3.0704,3.0704,3.07,3.0707,3.0707,3.0708,3.0708,3.0708,3.0708,3.0848,3.0836,3.0846,3.0835,3.0833,3.0826,3.0799,3.0796,3.0786,3.0766,3.0766,3.0737,3.0658,3.0639,3.0712,3.0711,3.071,3.071,3.071,3.0936,3.0912,3.0929,3.0927,3.0912,3.0917,3.0883,3.088,3.0873,3.0879,3.0848,3.0794,3.0778,3.0771,3.0755,3.0853,3.0853,3.0853,3.0853,3.0993,3.0983,3.0995,3.0994,3.0989,3.0961,3.0982,3.0962,3.0937,3.0932,3.0914,3.0891,3.0884,3.0872,3.0863,3.0847,3.0967,3.0967,3.0967,3.1046,3.1035,3.1058,3.1034,3.102,3.101,3.1029,3.103,3.0997,3.0972,3.0928,3.0923,3.0885,3.0874,3.0848,3.0833,3.0805,0,0]}]]